Terminal Aerodrome Forecast
Issued by NWS Sterling, VA

Current Version | Previous Version | Graphics & Text | Print | Product List | Glossary On
Versions: 1 2 3 4 5 6 7 8 9 10 11 12 13 14 15 16 17 18 19 20 21 22 23 24 25
000
FTUS41 KLWX 010153 AAB
TAFDCA
TAF AMD
KDCA 010153Z 0102/0124 31010KT P6SM BKN050
     FM010400 03005KT P6SM -SHRA OVC040
     FM010800 06009KT P6SM -SHRA OVC025
     FM011000 06010KT P6SM OVC015
     FM011500 06013KT P6SM BKN040
     FM012000 06009KT P6SM BKN040
     FM012300 36005KT P6SM BKN040=

USA.gov is the U.S. government's official web portal to all federal, state and local government web resources and services.